Location: Santa Fe
(35.6870°N, 105.9370°W)
Time: 09:09:46
(UTC-06:00)

Amateur Radio Satellites - All Passes

Search period start: 03 August 2015 08:39
Search period end: 04 August 2015 08:39
Location: Santa Fe, 35.6870°N, 105.9370°W

Satellite Date Start Highest point End Downlink Frequencies (MHz)
Time Altitude Azimuth
COMPASS 1 03 Aug 08:51:00 08:52:25 12° 90° (E) 08:54:05 437.405
HO-68 03 Aug 08:54:45 09:01:03 33° 96° (E) 09:07:29 435.675
BEESAT 2 03 Aug 08:58:18 09:02:20 68° 243° (WSW) 09:06:18 435.950
SEEDS 03 Aug 09:08:14 09:11:46 26° 95° (E) 09:15:19 437.485
AIST 2 03 Aug 09:09:24 09:13:09 31° 54° (NE) 09:16:51 435.215
M-CUBED/EXP-1 PRIME 03 Aug 09:11:19 09:14:58 33° 66° (ENE) 09:18:56 437.505
PCSat 03 Aug 09:13:46 09:19:09 69° 298° (WNW) 09:24:35 145.827
CUTE 1.7 + AOD 2 03 Aug 09:14:36 09:18:38 39° 98° (E) 09:22:39 437.475
CANX-2 03 Aug 09:23:13 09:27:27 57° 99° (E) 09:31:39 2200.000
SO-50 03 Aug 09:28:02 09:32:41 56° 303° (WNW) 09:37:30 436.795
AAUSAT CUBESAT 2 03 Aug 09:28:28 09:32:05 28° 96° (E) 09:35:44 437.432
Oscar 11 03 Aug 09:29:37 09:31:20 12° 90° (E) 09:33:18 145.826/435.025
UWE-3 03 Aug 09:30:09 09:31:19 11° 89° (E) 09:32:49 435.000/436.395/437.385
CINEMA 3 03 Aug 09:33:11 09:37:37 37° 97° (E) 09:42:13 145.822/145.860
BEESAT 3 03 Aug 09:35:40 09:38:32 18° 249° (WSW) 09:41:14 437.485
AUBIESAT-1 03 Aug 09:37:55 09:41:54 58° 70° (ENE) 09:46:14 437.475
DOVE 4 03 Aug 09:41:03 09:45:47 78° 282° (WNW) 09:50:47 437.250
CUBEBUG 2 03 Aug 09:48:32 09:52:20 25° 94° (E) 09:56:16 437.445
YUBILEINY 03 Aug 10:03:50 10:07:59 15° 61° (ENE) 10:12:48 435.215
GOMX 1 03 Aug 10:04:58 10:08:53 27° 288° (WNW) 10:12:55 467.674
TIGRISAT 03 Aug 10:06:01 10:09:22 23° 70° (ENE) 10:12:54 435.000
BRITE-PL 03 Aug 10:07:34 10:10:13 15° 290° (WNW) 10:12:45 437.365/2234.400
ANTELSAT 03 Aug 10:08:41 10:12:13 25° 70° (ENE) 10:15:56 437.575/2403.000
COMPASS 1 03 Aug 10:24:20 10:28:24 46° 285° (WNW) 10:32:24 437.405
POLYITAN 1 03 Aug 10:28:03 10:30:23 15° 69° (ENE) 10:32:55 437.675
DELFI C3 03 Aug 10:32:23 10:36:17 45° 98° (E) 10:40:10 145.870
ZACube-1 03 Aug 10:34:21 10:38:45 46° 99° (E) 10:43:11 437.345
BUGSAT 1 03 Aug 10:37:13 10:37:27 10° 67° (ENE) 10:37:57 437.445
Cosmos 2491 03 Aug 10:39:20 10:41:06 11° 79° (E) 10:43:43 435.465 / 435.565
HO-68 03 Aug 10:42:12 10:48:52 42° 292° (WNW) 10:55:27 435.675
POPSAT HIP 1 03 Aug 10:43:10 10:46:21 22° 71° (ENE) 10:49:39 437.405
SEEDS 03 Aug 10:44:04 10:47:26 22° 289° (WNW) 10:50:41 437.485
M-CUBED/EXP-1 PRIME 03 Aug 10:47:04 10:49:55 18° 264° (W) 10:52:46 437.505
AIST 2 03 Aug 10:48:27 10:51:31 20° 249° (WSW) 10:54:26 435.215
QB50P2 03 Aug 10:51:04 10:54:38 28° 72° (ENE) 10:58:17 145.880/145.840
CUTE 1.7 + AOD 2 03 Aug 10:51:38 10:54:14 16° 291° (WNW) 10:56:42 437.475
FUNcube-1 03 Aug 10:54:47 10:59:22 78° 101° (ESE) 11:03:57 145.935
UNISAT 6 03 Aug 10:59:12 11:03:32 82° 258° (WSW) 11:08:01 437.425
HUMSAT D 03 Aug 11:01:04 11:05:02 35° 97° (E) 11:09:00 437.325/437.525
CANX-2 03 Aug 11:01:36 11:02:56 11° 293° (WNW) 11:04:01 2200.000
Oscar 11 03 Aug 11:03:38 11:07:50 47° 286° (WNW) 11:12:00 145.826/435.025
UWE-3 03 Aug 11:03:41 11:08:17 61° 284° (WNW) 11:12:53 435.000/436.395/437.385
AAUSAT CUBESAT 2 03 Aug 11:04:26 11:07:31 20° 290° (WNW) 11:10:28 437.432
UKube-1 03 Aug 11:05:46 11:09:07 22° 95° (E) 11:12:33 .
CINEMA 3 03 Aug 11:11:02 11:14:36 21° 290° (WNW) 11:18:06 145.822/145.860
DUCHIFAT 1 03 Aug 11:12:16 11:16:15 47° 74° (ENE) 11:20:17 145.980
O/OREOS (USA 219) 03 Aug 11:13:12 11:17:38 47° 66° (ENE) 11:22:05 437.305
QB50P1 03 Aug 11:17:22 11:21:28 57° 76° (ENE) 11:25:37 145.935-145.965
NANOSAT C BR1 03 Aug 11:17:34 11:21:40 56° 75° (ENE) 11:25:47 145.865
AISAT 03 Aug 11:23:17 11:26:49 24° 95° (E) 11:30:26 437.250
CUBEBUG 2 03 Aug 11:24:56 11:28:59 29° 288° (WNW) 11:33:01 437.445
CUBEBUG 1 03 Aug 11:30:24 11:32:51 15° 92° (E) 11:35:29 437.445
DX 1 03 Aug 11:37:03 11:41:21 59° 100° (E) 11:45:38 434.975-435.025
TIGRISAT 03 Aug 11:42:19 11:46:01 27° 265° (W) 11:49:44 435.000
50 SAT 03 Aug 11:44:10 11:48:03 50° 99° (E) 11:51:53 437.505
ANTELSAT 03 Aug 11:45:24 11:48:58 24° 266° (W) 11:52:32 437.575/2403.000
YUBILEINY 03 Aug 11:57:34 12:06:27 83° 82° (E) 12:15:19 435.215
VELOX 1 03 Aug 12:00:52 12:05:15 64° 101° (E) 12:09:38 145.980
POLYITAN 1 03 Aug 12:02:05 12:06:00 38° 262° (W) 12:09:56 437.675
AIST 1 03 Aug 12:07:23 12:11:43 75° 95° (E) 12:16:03
BUGSAT 1 03 Aug 12:08:33 12:12:30 54° 259° (W) 12:16:28 437.445
DELFI C3 03 Aug 12:09:19 12:10:59 12° 292° (WNW) 12:12:26 145.870
ZACube-1 03 Aug 12:12:01 12:14:46 15° 292° (WNW) 12:17:20 437.345
POPSAT HIP 1 03 Aug 12:18:37 12:22:08 25° 265° (W) 12:25:36 437.405
ESTCUBE 1 03 Aug 12:22:34 12:27:04 79° 102° (ESE) 12:31:33 437.505/2401.250
Oscar 19 03 Aug 12:26:29 12:28:45 13° 65° (ENE) 12:31:18 437.125/150
QB50P2 03 Aug 12:27:25 12:30:33 20° 266° (W) 12:33:35 145.880/145.840
Cosmos 2491 03 Aug 12:28:01 12:36:45 76° 94° (E) 12:45:29 435.465 / 435.565
HUMSAT D 03 Aug 12:37:33 12:40:31 18° 291° (WNW) 12:43:18 437.325/437.525
UKube-1 03 Aug 12:41:34 12:45:14 26° 289° (WNW) 12:48:48 .
DUCHIFAT 1 03 Aug 12:50:49 12:52:23 11° 270° (W) 12:53:41 145.980
O/OREOS (USA 219) 03 Aug 12:54:16 12:56:41 14° 260° (W) 12:58:52 437.305
AISAT 03 Aug 12:59:38 13:03:20 26° 289° (WNW) 13:06:57 437.250
CUBEBUG 1 03 Aug 13:05:22 13:09:24 38° 287° (WNW) 13:13:24 437.445
DX 1 03 Aug 13:15:51 13:17:09 11° 294° (WNW) 13:18:11 434.975-435.025
50 SAT 03 Aug 13:21:10 13:22:12 11° 293° (WNW) 13:23:00 437.505
Cosmos 2504 03 Aug 13:30:48 13:38:43 43° 76° (ENE) 13:46:51 435.465 / 435.565
SPROUT 03 Aug 13:31:02 13:35:19 70° 284° (WNW) 13:39:36 437.525
TISAT 1 03 Aug 13:32:29 13:36:43 70° 102° (ESE) 13:40:56 437.305
VELOX 1 03 Aug 13:40:20 13:41:20 10° 294° (WNW) 13:42:03 145.980
Gurwin Techsat 1B 03 Aug 13:44:23 13:48:27 24° 68° (ENE) 13:52:41 435.225
BEESAT 03 Aug 13:46:35 13:49:02 14° 91° (E) 13:51:44 436.000
ITAMSAT 1 03 Aug 13:51:16 13:55:19 24° 68° (ENE) 13:59:30 435.822/435.867
YUBILEINY 03 Aug 13:56:55 14:02:21 17° 279° (W) 14:07:12 435.215
Oscar 19 03 Aug 14:02:32 14:07:36 66° 259° (W) 14:12:43 437.125/150
SWISSCUBE 03 Aug 14:06:20 14:10:18 26° 95° (E) 14:14:20 437.505
JAS-2 03 Aug 14:08:55 14:12:50 18° 61° (ENE) 14:17:21 435.910
ITUPSAT 1 03 Aug 14:28:15 14:32:45 41° 98° (E) 14:37:14 437.325
Cosmos 2491 03 Aug 14:28:20 14:34:40 20° 294° (WNW) 14:40:32 435.465 / 435.565
DANDE 03 Aug 14:55:04 14:58:31 24° 79° (E) 15:02:57 436.750
CUSAT 1 03 Aug 14:55:28 14:59:53 42° 80° (E) 15:05:41 437.405
AO-7 03 Aug 14:57:13 15:04:07 31° 62° (ENE) 15:11:13 29.400- 29.500
BEESAT 03 Aug 15:22:36 15:27:13 49° 287° (WNW) 15:31:47 436.000
Cosmos 2504 03 Aug 15:23:09 15:30:51 38° 272° (W) 15:38:27 435.465 / 435.565
Gurwin Techsat 1B 03 Aug 15:23:18 15:28:14 38° 263° (W) 15:33:09 435.225
ITAMSAT 1 03 Aug 15:29:51 15:34:39 36° 263° (W) 15:39:25 435.822/435.867
KKS-1 03 Aug 15:31:20 15:35:17 31° 97° (E) 15:39:16 437.445
HORYU 2 03 Aug 15:33:24 15:37:14 29° 71° (ENE) 15:41:08 437.375
SWISSCUBE 03 Aug 15:44:04 15:48:07 27° 290° (WNW) 15:52:02 437.505
JAS-2 03 Aug 15:51:04 15:57:06 71° 259° (W) 16:04:00 435.910
ITUPSAT 1 03 Aug 16:07:02 16:10:21 18° 292° (WNW) 16:13:30 437.325
VERMONT LUNAR 03 Aug 16:16:24 16:18:46 20° 147° (SSE) 16:21:11 437.305
STARS 03 Aug 16:33:38 16:38:05 84° 281° (W) 16:42:31 437.465
DANDE 03 Aug 16:37:48 16:41:33 27° 263° (W) 16:46:09 436.750
CUSAT 1 03 Aug 16:38:51 16:42:25 19° 265° (W) 16:46:25 437.405
GONETS M04 03 Aug 16:39:48 16:47:33 36° 73° (ENE) 16:55:29
MOZHAYETS 4 03 Aug 16:41:54 16:45:24 22° 93° (E) 16:49:01
AO-7 03 Aug 16:48:22 16:56:33 56° 258° (WSW) 17:04:44 29.400- 29.500
KKS-1 03 Aug 17:08:21 17:11:45 21° 290° (WNW) 17:15:01 437.445
HORYU 2 03 Aug 17:10:26 17:13:53 21° 266° (W) 17:17:15 437.375
CUTE-I 03 Aug 17:19:18 17:22:10 15° 65° (ENE) 17:25:17 437.470
VERMONT LUNAR 03 Aug 17:52:06 17:55:16 73° 342° (NNW) 17:58:26 437.305
Cubesat XI-IV 03 Aug 18:01:51 18:06:47 39° 71° (ENE) 18:11:46 437.490
SO-50 03 Aug 18:02:16 18:07:10 59° 57° (ENE) 18:11:56 436.795
PCSat 03 Aug 18:04:38 18:09:54 50° 59° (ENE) 18:15:09 145.827
MOZHAYETS 4 03 Aug 18:18:36 18:22:41 30° 288° (WNW) 18:26:39
Cosmos 2499 03 Aug 18:21:02 18:29:07 40° 74° (ENE) 18:37:19 435.465 / 435.565
GONETS M04 03 Aug 18:36:25 18:44:33 44° 271° (W) 18:52:35
CUBESAT XI-V 03 Aug 18:43:10 18:47:22 36° 97° (E) 18:51:36 437.345
PHONESAT 2.4 03 Aug 18:51:30 18:54:51 46° 152° (SSE) 18:58:14 2401.200-2431.200
CUTE-I 03 Aug 18:56:28 19:01:46 63° 259° (WSW) 19:07:06 437.470
HO-68 03 Aug 19:22:01 19:26:35 19° 61° (ENE) 19:31:28 435.675
VERMONT LUNAR 03 Aug 19:29:19 19:32:14 32° 357° (N) 19:35:10 437.305
GOMX 1 03 Aug 19:33:44 19:36:33 18° 70° (ENE) 19:39:30 467.674
BRITE-PL 03 Aug 19:36:25 19:40:24 36° 74° (ENE) 19:44:16 437.365/2234.400
Cubesat XI-IV 03 Aug 19:42:48 19:47:03 23° 266° (W) 19:51:08 437.490
SO-50 03 Aug 19:44:39 19:47:15 14° 251° (WSW) 19:49:33 436.795
PCSat 03 Aug 19:49:11 19:52:58 19° 253° (WSW) 19:56:31 145.827
ISS 03 Aug 19:54:09 19:57:21 60° 135° (SE) 20:00:34 145.825
RS-15 03 Aug 19:55:41 20:03:58 28° 105° (ESE) 20:12:52 29.354- 29.394
SEEDS 03 Aug 19:58:52 20:00:50 13° 68° (ENE) 20:03:01 437.485
CUTE 1.7 + AOD 2 03 Aug 20:05:16 20:08:21 20° 70° (ENE) 20:11:34 437.475
PRISM 03 Aug 20:10:37 20:14:43 74° 102° (ESE) 20:18:47 437.425
CANX-2 03 Aug 20:13:31 20:17:08 28° 72° (ENE) 20:20:50 2200.000
Cosmos 2499 03 Aug 20:14:08 20:22:19 42° 271° (W) 20:30:20 435.465 / 435.565
AAUSAT CUBESAT 2 03 Aug 20:17:37 20:19:48 14° 69° (ENE) 20:22:11 437.432
CUBESAT XI-V 03 Aug 20:21:18 20:24:35 19° 291° (WNW) 20:27:43 437.345
STRAND 1 03 Aug 20:21:32 20:26:38 75° 284° (WNW) 20:31:42 437.568
PHONESAT 2.4 03 Aug 20:29:25 20:32:50 48° 347° (NNW) 20:36:15 2401.200-2431.200
CINEMA 3 03 Aug 20:33:16 20:36:23 22° 70° (ENE) 20:39:40 145.822/145.860
DOVE 4 03 Aug 20:44:20 20:48:29 75° 77° (ENE) 20:52:38 437.250
CUBEBUG 2 03 Aug 20:45:44 20:47:42 13° 67° (ENE) 20:49:53 437.445
VERMONT LUNAR 03 Aug 21:06:14 21:09:18 45° 13° (NNE) 21:12:22 437.305
HO-68 03 Aug 21:06:32 21:13:40 75° 256° (WSW) 21:20:51 435.675
GOMX 1 03 Aug 21:10:52 21:14:35 29° 264° (W) 21:18:11 467.674
COMPASS 1 03 Aug 21:12:00 21:16:12 78° 78° (ENE) 21:20:27 437.405
BRITE-PL 03 Aug 21:16:32 21:19:07 15° 267° (W) 21:21:28 437.365/2234.400
DELFI C3 03 Aug 21:17:21 21:20:13 19° 70° (ENE) 21:23:13 145.870
ZACube-1 03 Aug 21:28:08 21:31:29 24° 71° (ENE) 21:35:00 437.345
ISS 03 Aug 21:31:57 21:34:03 16° 332° (NNW) 21:36:07 145.825
SEEDS 03 Aug 21:32:11 21:36:15 45° 261° (W) 21:40:22 437.485
CUTE 1.7 + AOD 2 03 Aug 21:40:20 21:44:05 29° 264° (W) 21:47:49 437.475
FUNcube-1 03 Aug 21:47:49 21:51:44 39° 73° (ENE) 21:55:45 145.935
BEESAT 3 03 Aug 21:49:21 21:50:29 11° 109° (ESE) 21:51:52 437.485
CANX-2 03 Aug 21:49:48 21:53:04 21° 267° (W) 21:56:16 2200.000
HUMSAT D 03 Aug 21:50:57 21:53:37 17° 69° (ENE) 21:56:27 437.325/437.525
AAUSAT CUBESAT 2 03 Aug 21:51:06 21:55:05 41° 262° (W) 21:59:04 437.432
Oscar 11 03 Aug 21:54:59 21:59:19 89° 79° (E) 22:03:42 145.826/435.025
UWE-3 03 Aug 21:57:52 22:02:02 75° 77° (ENE) 22:06:20 435.000/436.395/437.385
UKube-1 03 Aug 21:59:00 22:01:11 14° 67° (ENE) 22:03:33 .
RS-15 03 Aug 22:04:36 22:15:29 70° 303° (WNW) 22:26:44 29.354- 29.394
PHONESAT 2.4 03 Aug 22:07:54 22:11:11 36° 4° (N) 22:14:29 2401.200-2431.200
CINEMA 3 03 Aug 22:10:03 22:13:31 25° 265° (W) 22:16:57 145.822/145.860
AISAT 03 Aug 22:19:13 22:21:47 16° 68° (ENE) 22:24:33 437.250
AIST 1 03 Aug 22:19:14 22:21:15 13° 71° (ENE) 22:23:29
CUBEBUG 2 03 Aug 22:20:02 22:24:01 44° 262° (W) 22:28:07 437.445
50 SAT 03 Aug 22:25:54 22:28:34 19° 70° (ENE) 22:31:23 437.505
M-CUBED/EXP-1 PRIME 03 Aug 22:29:11 22:33:46 45° 103° (ESE) 22:38:10 437.505
DX 1 03 Aug 22:29:55 22:33:50 35° 72° (ENE) 22:37:48 434.975-435.025
Cosmos 2491 03 Aug 22:42:41 22:50:07 32° 71° (ENE) 22:57:46 435.465 / 435.565
VERMONT LUNAR 03 Aug 22:43:00 22:46:01 40° 209° (SSW) 22:48:59 437.305
BEESAT 2 03 Aug 22:48:45 22:52:37 44° 116° (ESE) 22:56:34 435.950
DELFI C3 03 Aug 22:51:38 22:55:08 27° 264° (W) 22:58:36 145.870
UNISAT 6 03 Aug 22:54:18 22:58:16 27° 95° (E) 23:02:18 437.425
AUBIESAT-1 03 Aug 22:55:29 23:00:13 77° 106° (ESE) 23:04:43 437.475
VELOX 1 03 Aug 22:55:38 22:59:42 39° 73° (ENE) 23:03:49 145.980
YUBILEINY 03 Aug 23:02:01 23:07:07 18° 82° (E) 23:12:46 435.215
ZACube-1 03 Aug 23:04:23 23:07:48 23° 266° (W) 23:11:12 437.345
AIST 2 03 Aug 23:06:12 23:08:13 14° 110° (ESE) 23:10:28 435.215
QB50P1 03 Aug 23:07:25 23:08:52 12° 90° (E) 23:10:34 145.935-145.965
NANOSAT C BR1 03 Aug 23:07:29 23:08:48 11° 90° (E) 23:10:23 145.865
ESTCUBE 1 03 Aug 23:19:09 23:23:31 50° 74° (ENE) 23:27:55 437.505/2401.250
BEESAT 3 03 Aug 23:24:03 23:28:01 51° 302° (WNW) 23:32:01 437.485
HUMSAT D 03 Aug 23:25:22 23:29:07 32° 263° (W) 23:32:54 437.325/437.525
FUNcube-1 03 Aug 23:26:00 23:28:19 14° 269° (W) 23:30:26 145.935
UKube-1 03 Aug 23:32:50 23:36:58 44° 261° (W) 23:41:06 .
TIGRISAT 03 Aug 23:35:47 23:40:30 77° 102° (ESE) 23:45:13 435.000
ANTELSAT 03 Aug 23:38:56 23:43:40 86° 103° (ESE) 23:48:23 437.575/2403.000
PHONESAT 2.4 03 Aug 23:45:53 23:49:24 81° 19° (NNE) 23:52:55 2401.200-2431.200
POLYITAN 1 03 Aug 23:50:01 23:54:04 40° 98° (E) 23:58:08 437.675
BUGSAT 1 03 Aug 23:53:48 23:57:10 25° 96° (E) 00:00:38 437.445
AISAT 03 Aug 23:53:55 23:58:05 40° 262° (W) 00:02:13 437.250
AIST 1 03 Aug 23:55:10 23:59:10 39° 267° (W) 00:03:07
CUBEBUG 1 03 Aug 23:58:04 00:02:24 69° 258° (WSW) 00:06:44 437.445
50 SAT 03 Aug 23:59:40 00:02:59 26° 265° (W) 00:06:16 437.505
M-CUBED/EXP-1 PRIME 04 Aug 00:04:52 00:08:10 18° 297° (WNW) 00:11:14 437.505
POPSAT HIP 1 04 Aug 00:05:39 00:09:53 62° 100° (E) 00:14:07 437.405
DX 1 04 Aug 00:07:19 00:10:14 17° 267° (W) 00:12:58 434.975-435.025
QB50P2 04 Aug 00:14:06 00:18:24 82° 102° (ESE) 00:22:41 145.880/145.840
TISAT 1 04 Aug 00:21:52 00:25:37 34° 73° (ENE) 00:29:26 437.305
SPROUT 04 Aug 00:22:02 00:26:13 60° 76° (ENE) 00:30:27 437.525
RS-15 04 Aug 00:22:28 00:30:36 22° 331° (NNW) 00:38:36 29.354- 29.394
BEESAT 2 04 Aug 00:28:16 00:30:55 16° 312° (NW) 00:33:28 435.950
UNISAT 6 04 Aug 00:31:01 00:34:58 26° 289° (WNW) 00:38:50 437.425
AUBIESAT-1 04 Aug 00:32:47 00:34:17 11° 300° (WNW) 00:35:30 437.475
VELOX 1 04 Aug 00:33:41 00:36:27 16° 268° (W) 00:39:01 145.980
DUCHIFAT 1 04 Aug 00:35:07 00:39:19 59° 285° (WNW) 00:43:30 145.980
Cosmos 2491 04 Aug 00:39:00 00:47:19 49° 270° (W) 00:55:30 435.465 / 435.565
NANOSAT C BR1 04 Aug 00:40:50 00:44:58 49° 286° (WNW) 00:49:04 145.865
QB50P1 04 Aug 00:40:56 00:45:03 48° 286° (WNW) 00:49:09 145.935-145.965
AIST 2 04 Aug 00:42:20 00:46:26 47° 303° (WNW) 00:50:34 435.215
BEESAT 04 Aug 00:51:10 00:53:12 13° 66° (ENE) 00:55:30 436.000
YUBILEINY 04 Aug 00:54:21 01:03:04 79° 278° (W) 01:11:52 435.215
ESTCUBE 1 04 Aug 00:58:34 01:00:44 13° 270° (W) 01:02:37 437.505/2401.250
SWISSCUBE 04 Aug 01:10:25 01:14:05 23° 69° (ENE) 01:17:54 437.505
TIGRISAT 04 Aug 01:16:18 01:16:41 10° 295° (WNW) 01:16:45 435.000
O/OREOS (USA 219) 04 Aug 01:22:17 01:26:45 83° 291° (WNW) 01:31:17 437.305
PHONESAT 2.4 04 Aug 01:24:28 01:27:07 20° 215° (SW) 01:29:43 2401.200-2431.200
POLYITAN 1 04 Aug 01:27:05 01:29:39 15° 292° (WNW) 01:32:04 437.675
BUGSAT 1 04 Aug 01:29:22 01:32:32 21° 289° (WNW) 01:35:39 437.445
ITUPSAT 1 04 Aug 01:32:16 01:36:34 35° 72° (ENE) 01:40:57 437.325
POPSAT HIP 1 04 Aug 01:44:38 01:45:18 10° 294° (WNW) 01:45:42 437.405
JUGNU 04 Aug 01:44:49 01:46:28 11° 167° (SSE) 01:48:12 437.505
Cosmos 2504 04 Aug 01:58:50 02:04:44 30° 86° (E) 02:11:10 435.465 / 435.565
TISAT 1 04 Aug 01:58:52 02:01:31 16° 267° (W) 02:04:01 437.305
Gurwin Techsat 1B 04 Aug 02:05:38 02:06:39 11° 88° (E) 02:08:06 435.225
Oscar 19 04 Aug 02:16:58 02:22:04 56° 100° (E) 02:27:10 437.125/150
ISS 04 Aug 02:24:28 02:27:04 22° 31° (NNE) 02:29:42 145.825
BEESAT 04 Aug 02:25:52 02:30:35 60° 259° (W) 02:35:21 436.000
KKS-1 04 Aug 02:27:20 02:30:32 20° 69° (ENE) 02:33:51 437.445
RS-15 04 Aug 02:44:20 02:49:23 13° 7° (N) 02:54:42 29.354- 29.394
SWISSCUBE 04 Aug 02:47:28 02:51:48 32° 263° (W) 02:56:04 437.505
YUBILEINY 04 Aug 02:57:31 03:01:40 13° 300° (WNW) 03:05:07 435.215
JAS-2 04 Aug 03:04:12 03:10:08 24° 90° (E) 03:16:10 435.910
ITUPSAT 1 04 Aug 03:10:52 03:14:34 21° 266° (W) 03:18:08 437.325
STARS 04 Aug 03:27:28 03:31:44 57° 74° (ENE) 03:36:03 437.465
JUGNU 04 Aug 03:31:08 03:34:45 16° 177° (S) 03:38:22 437.505
MOZHAYETS 4 04 Aug 03:41:53 03:44:34 16° 68° (ENE) 03:47:27
Gurwin Techsat 1B 04 Aug 03:42:00 03:47:19 76° 285° (WNW) 03:52:37 435.225
SRMSAT 04 Aug 03:42:30 03:44:26 12° 168° (SSE) 03:46:28 437.500
ITAMSAT 1 04 Aug 03:45:08 03:50:19 81° 286° (WNW) 03:55:29 435.822/435.867
Cosmos 2504 04 Aug 03:49:57 03:56:41 42° 284° (WNW) 04:03:50 435.465 / 435.565
Oscar 19 04 Aug 03:57:49 04:01:01 16° 294° (WNW) 04:04:00 437.125/150
ISS 04 Aug 04:00:35 04:03:34 33° 227° (SW) 04:06:32 145.825
CUSAT 1 04 Aug 04:02:18 04:05:01 42° 97° (E) 04:07:31 437.405
KKS-1 04 Aug 04:03:03 04:06:59 31° 263° (W) 04:10:54 437.445
DANDE 04 Aug 04:05:55 04:08:36 25° 98° (E) 04:10:59 436.750
JAS-2 04 Aug 04:47:54 04:55:42 64° 287° (WNW) 05:03:10 435.910
AO-7 04 Aug 04:53:03 05:01:17 62° 103° (ESE) 05:09:29 29.400- 29.500
RS-15 04 Aug 04:57:20 05:07:18 32° 40° (NE) 05:17:53 29.354- 29.394
HORYU 2 04 Aug 05:03:11 05:07:43 90° 311° (NW) 05:12:13 437.375
STARS 04 Aug 05:07:59 05:08:37 10° 271° (W) 05:08:57 437.465
MOZHAYETS 4 04 Aug 05:17:00 05:21:27 45° 262° (W) 05:25:55
JUGNU 04 Aug 05:19:40 05:23:03 15° 187° (S) 05:26:22 437.505
SRMSAT 04 Aug 05:29:16 05:32:52 17° 177° (S) 05:36:29 437.500
GONETS M04 04 Aug 05:36:58 05:45:02 45° 89° (E) 05:53:11
CUBESAT XI-V 04 Aug 05:43:57 05:47:46 26° 71° (ENE) 05:51:41 437.345
STRAND 1 04 Aug 05:58:49 06:00:49 13° 64° (ENE) 06:03:05 437.568
Cubesat XI-IV 04 Aug 06:22:52 06:26:33 20° 92° (E) 06:30:25 437.490
JAS-2 04 Aug 06:36:37 06:39:27 12° 303° (WNW) 06:41:41 435.910
AO-7 04 Aug 06:46:49 06:53:36 28° 300° (WNW) 07:00:07 29.400- 29.500
Cosmos 2499 04 Aug 06:55:00 07:01:09 30° 86° (E) 07:07:53 435.465 / 435.565
PRISM 04 Aug 06:57:43 07:01:31 35° 73° (ENE) 07:05:22 437.425
RS-15 04 Aug 07:09:18 07:21:12 80° 243° (WSW) 07:33:26 29.354- 29.394
BEESAT 2 04 Aug 07:11:51 07:13:41 13° 46° (NE) 07:15:41 435.950
CUTE-I 04 Aug 07:16:31 07:21:49 67° 101° (E) 07:27:06 437.470
SRMSAT 04 Aug 07:18:05 07:21:18 15° 187° (S) 07:24:29 437.500
CUBESAT XI-V 04 Aug 07:21:10 07:25:09 26° 265° (W) 07:29:02 437.345
GONETS M04 04 Aug 07:34:15 07:42:04 35° 288° (WNW) 07:49:43
STRAND 1 04 Aug 07:34:21 07:39:29 71° 258° (WSW) 07:44:38 437.568
BRITE-PL 04 Aug 07:44:00 07:46:40 16° 93° (E) 07:49:39 437.365/2234.400
BEESAT 3 04 Aug 07:45:16 07:48:59 35° 55° (NE) 07:52:39 437.485
Cubesat XI-IV 04 Aug 08:01:51 08:06:54 44° 288° (WNW) 08:11:54 437.490
SO-50 04 Aug 08:13:51 08:18:09 37° 114° (ESE) 08:22:40 436.795
PRISM 04 Aug 08:34:29 08:37:06 16° 267° (W) 08:39:32 437.425
